RH
25 28 27 25 24 23 23 23 24 24 25 26 26 26 25 24 24 23 21 20 20 20 20 20 19 19 25 30 32 27 26 23 21 25 27 29 32 34 39 36 39 41 36 35 35 35 35
34 34 30 27 25 25 24 24 25 25 26 28 27 27 26 24 23 22 21 21 21 19 19 18 18 22 27 30 29 24 22 23 24 27 30 33 32 31 35 36 38 39 42 41 43 43 43
36 33 31 29 27 27 27 27 27 28 28 28 28 27 25 25 24 23 22 21 20 18 18 19 21 25 25 29 28 25 23 23 27 27 29 36 39 39 37 38 33 36 36 34 33 36 36
38 33 31 32 30 29 29 29 28 28 29 30 30 27 26 25 23 23 21 21 20 18 20 23 27 32 31 26 26 22 21 20 23 26 28 32 42 45 45 45 43 46 45 47 37 34 33
40 37 35 34 34 33 31 31 32 33 32 31 29 27 25 25 23 22 20 20 19 19 20 20 22 31 26 22 22 21 17 17 22 29 34 37 43 47 55 62 61 53 56 51 44 44 46
45 43 42 40 37 37 36 36 36 34 32 30 28 28 27 26 24 22 20 19 19 20 20 24 21 20 21 21 28 20 14 16 14 13 26 43 53 58 61 66 62 62 64 64 60 56 64
47 47 45 43 41 41 40 39 37 35 33 31 30 29 28 26 23 21 19 18 16 21 23 21 20 21 21 21 19 18 13 9 9 9 12 12 35 38 40 71 79 82 83 79 74 65 82
52 49 45 42 41 41 41 38 36 35 33 32 31 30 28 25 23 20 16 15 17 16 32 31 26 22 19 16 15 17 13 10 11 13 15 14 16 22 34 46 49 55 75 87 78 78 80
55 50 48 46 44 43 41 40 38 36 36 34 32 30 26 23 21 18 16 15 15 19 31 33 25 20 19 14 18 18 14 15 17 21 22 23 22 25 24 28 33 45 53 50 72 69 71
56 52 52 51 47 45 44 42 39 38 35 32 30 28 24 21 18 16 14 14 16 20 33 33 23 19 19 11 23 17 14 19 26 27 23 26 35 38 35 44 63 57 45 42 47 48 60
61 57 56 54 51 47 45 42 41 38 34 31 30 26 22 18 16 14 13 13 19 25 35 28 21 18 15 16 18 18 15 21 31 28 27 33 34 37 51 70 55 54 56 59 52 51 52
65 63 61 57 54 49 45 41 41 37 33 31 28 24 21 17 18 14 11 15 28 41 45 25 20 16 16 18 19 19 17 22 28 23 26 29 33 49 62 62 50 48 55 49 39 40 63
68 68 64 59 55 51 46 42 42 37 33 30 26 24 20 17 15 12 11 26 33 28 21 25 20 19 18 21 21 21 22 30 41 43 38 33 25 42 59 70 51 44 52 65 58 64 80
72 73 68 61 57 52 47 45 43 37 33 28 26 23 19 16 13 11 17 23 30 24 25 19 20 19 20 23 23 26 29 39 43 46 44 49 45 42 38 48 62 40 54 85 97 90 75
73 74 68 63 58 54 50 49 44 37 33 29 25 22 18 15 13 15 20 26 31 27 25 25 22 21 23 27 28 30 36 44 55 55 64 66 55 31 48 60 65 61 64 76 87 74 74
77 74 71 64 59 56 54 49 42 37 32 28 25 24 18 15 15 17 18 27 30 26 25 26 25 25 33 31 38 39 44 55 58 60 57 59 62 35 47 56 73 76 90 86 79 92 82
77 74 70 65 62 59 56 49 42 37 32 28 24 28 19 18 17 16 24 27 26 26 27 27 30 34 33 45 39 41 51 67 64 55 50 46 57 46 60 75 77 78 79 82 85 83 92
78 74 73 68 64 60 56 48 41 36 31 27 28 29 20 20 21 20 25 28 27 27 26 31 33 36 40 31 34 42 68 67 62 52 43 53 75 72 84 84 87 86 89 87 97 83 88
81 76 73 71 66 61 57 47 41 36 31 29 30 26 21 21 25 27 27 25 26 24 30 30 36 38 33 25 37 36 38 44 41 43 64 75 76 84 84 96 80 82 81 84 87 97 94
82 75 74 72 68 61 55 47 42 35 31 30 33 31 27 23 26 24 27 25 24 23 33 28 33 35 25 23 30 38 37 36 42 47 58 72 89 94 98 97 96 91 84 83 87 99 98
83 80 75 72 66 61 52 45 41 34 31 29 30 31 30 34 27 23 27 28 25 24 22 26 33 30 30 39 34 33 30 40 47 46 49 60 83 90 90 86 84 86 82 83 87 90 97
87 76 76 71 66 61 51 45 39 34 31 29 30 29 31 29 22 23 26 25 24 21 20 29 28 24 23 37 37 44 44 51 50 49 50 58 71 76 87 84 86 90 81 75 82 86 89
81 79 76 69 67 56 49 46 38 34 30 27 29 28 25 28 24 27 26 22 22 17 22 25 24 24 27 29 28 37 47 50 52 50 44 39 42 57 76 73 81 89 87 86 85 86 90
86 80 76 71 63 52 50 45 37 34 29 26 27 26 25 30 26 25 21 16 16 16 19 16 21 23 26 24 37 46 53 52 50 40 24 28 40 56 67 72 80 82 82 76 79 77 83
87 81 76 69 56 52 51 40 36 32 27 26 25 20 22 30 22 21 19 17 17 15 16 17 19 19 24 35 46 51 57 52 43 36 28 27 42 57 69 74 73 70 55 47 49 52 72
87 80 72 64 53 58 47 38 36 31 27 26 23 18 17 20 26 22 19 16 24 23 22 19 17 19 29 40 45 45 46 38 41 33 25 27 35 48 51 68 74 55 36 38 47 63 38
85 78 69 59 61 50 40 38 35 30 28 26 21 17 15 17 20 18 20 23 16 19 24 18 18 22 29 37 40 45 51 36 42 41 35 39 41 46 54 59 63 48 38 43 48 43 37
84 74 64 63 54 46 41 38 35 28 28 26 20 16 13 17 16 12 10 15 14 18 27 23 27 26 30 36 40 40 39 39 43 40 38 44 49 52 49 52 49 43 48 51 45 39 38
81 69 65 58 50 46 40 38 33 30 28 27 19 15 15 14 12 11 9 9 10 13 19 22 23 24 28 34 38 35 42 40 37 51 41 50 45 49 48 49 47 41 39 42 44 44 43